Location: Gajan
(43.0218°N, 1.1244°E)
Time: 02:37:03
(UTC+00:00)

Cosmos 614 Rocket - Pass Details

Date: 22 April 2021
Orbit: 734 x 763 km, 74.1° (Epoch: 14 May)

Event Time Altitude Azimuth Distance (km) Brightness Sun altitude
Rises 19:17:32 0° 184° (S) 3,183 7.0 -6.2°
Reaches altitude 10° 19:19:56 10° 179° (S) 2,258 6.2 -6.6°
Maximum altitude 19:24:53 51° 105° (ESE) 930 4.1 -7.4°
Drops below altitude 10° 19:29:49 10° 30° (NNE) 2,257 6.4 -8.2°
Sets 19:32:13 0° 25° (NNE) 3,180 7.2 -8.6°
